Location: Gaast
(52.9002°N, 5.8891°E)
Time: 14:51:55
(UTC+00:00)

ACS3 Solar Sail - Pass Details

Date: 29 January 2026
Orbit: 898 x 968 km, 97.2° (Epoch: 17 February)

Event Time Altitude Azimuth Distance (km) Brightness Sun altitude
Rises 02:33:17 0° 11° (N) 3,615 5.2 -42.8°
Reaches altitude 10° 02:35:46 10° 9° (N) 2,655 4.4 -42.5°
Enters shadow 02:36:18 13° 8° (N) 2,454 4.2 -42.4°
